| time (UTC) | temp F | wind direction | speed MPH | gust MPH | rain 1hr in | rain 24hr in | rain mn in | humidity % | barometer mb |
| 20260505191839 | 74 | 51 | 0.0 | 5.0 | 0.00 | 0.00 | 0.00 | 39 | 998.1 |
| 20260505191338 | 75 | 202 | 0.0 | 13.0 | 0.00 | 0.00 | 0.00 | 37 | 997.7 |
| 20260505190834 | 75 | 279 | 3.0 | 15.0 | 0.00 | 0.00 | 0.00 | 36 | 998.1 |
| 20260505190330 | 73 | 135 | 0.0 | 8.0 | 0.00 | 0.00 | 0.00 | 40 | 998.1 |
| 20260505185826 | 72 | 160 | 0.0 | 10.0 | 0.00 | 0.00 | 0.00 | 39 | 998.1 |
| 20260505185322 | 72 | 229 | 0.0 | 8.0 | 0.00 | 0.00 | 0.00 | 40 | 998.4 |
| 20260505184818 | 72 | 282 | 0.0 | 8.0 | 0.00 | 0.00 | 0.00 | 39 | 998.4 |
| 20260505184316 | 73 | 167 | 0.0 | 2.0 | 0.00 | 0.00 | 0.00 | 39 | 998.7 |
| 20260505183813 | 72 | 150 | 0.0 | 0.0 | 0.00 | 0.00 | 0.00 | 40 | 998.7 |
| 20260505183309 | 72 | 213 | 0.0 | 15.0 | 0.00 | 0.00 | 0.00 | 39 | 999.1 |
| 20260505182806 | 72 | 235 | 0.0 | 2.0 | 0.00 | 0.00 | 0.00 | 38 | 999.1 |
| 20260505182305 | 71 | 271 | 0.0 | 2.0 | 0.00 | 0.00 | 0.00 | 40 | 999.1 |
| 20260505181800 | 71 | 148 | 0.0 | 0.0 | 0.00 | 0.00 | 0.00 | 40 | 999.1 |
| 20260505181257 | 71 | 213 | 6.0 | 8.0 | 0.00 | 0.00 | 0.00 | 39 | 999.4 |
| 20260505180753 | 71 | 213 | 6.0 | 8.0 | 0.00 | 0.00 | 0.00 | 39 | 999.4 |
| 20260505180250 | 69 | 185 | 0.0 | 0.0 | 0.00 | 0.00 | 0.00 | 42 | 999.8 |
| 20260505175746 | 69 | 232 | 0.0 | 8.0 | 0.00 | 0.00 | 0.00 | 41 | 999.8 |
| 20260505175243 | 68 | 150 | 3.0 | 5.0 | 0.00 | 0.00 | 0.00 | 43 | 999.8 |
| 20260505174739 | 67 | 215 | 0.0 | 0.0 | 0.00 | 0.00 | 0.00 | 43 | 1000.1 |
| 20260505174237 | 67 | 249 | 0.0 | 0.0 | 0.00 | 0.00 | 0.00 | 44 | 1000.1 |
| 20260505173732 | 67 | 233 | 0.0 | 0.0 | 0.00 | 0.00 | 0.00 | 44 | 1000.1 |
| 20260505173229 | 68 | 205 | 0.0 | 5.0 | 0.00 | 0.00 | 0.00 | 43 | 1000.1 |
| 20260505172726 | 68 | 247 | 0.0 | 2.0 | 0.00 | 0.00 | 0.00 | 42 | 1000.1 |
| 20260505172223 | 69 | 255 | 0.0 | 0.0 | 0.00 | 0.00 | 0.00 | 42 | 1000.1 |
| 20260505171723 | 69 | 219 | 3.0 | 10.0 | 0.00 | 0.00 | 0.00 | 41 | 1000.1 |
| 20260505171221 | 69 | 255 | 0.0 | 10.0 | 0.00 | 0.00 | 0.00 | 41 | 999.8 |
| 20260505170717 | 69 | 225 | 0.0 | 15.0 | 0.00 | 0.00 | 0.00 | 41 | 999.8 |
| 20260505170214 | 69 | 247 | 0.0 | 15.0 | 0.00 | 0.00 | 0.00 | 40 | 1000.1 |
| 20260505165709 | 69 | 200 | 0.0 | 10.0 | 0.00 | 0.00 | 0.00 | 40 | 999.8 |
| 20260505165206 | 69 | 324 | 1.0 | 2.0 | 0.00 | 0.00 | 0.00 | 40 | 999.8 |
| 20260505164701 | 70 | 262 | 0.0 | 15.0 | 0.00 | 0.00 | 0.00 | 39 | 999.8 |
| 20260505164159 | 70 | 298 | 0.0 | 15.0 | 0.00 | 0.00 | 0.00 | 39 | 999.8 |
| 20260505163657 | 71 | 238 | 0.0 | 0.0 | 0.00 | 0.00 | 0.00 | 38 | 999.8 |
| 20260505163155 | 72 | 55 | 0.0 | 13.0 | 0.00 | 0.00 | 0.00 | 38 | 999.8 |
| 20260505162652 | 73 | 37 | 0.0 | 8.0 | 0.00 | 0.00 | 0.00 | 37 | 999.8 |
| 20260505162149 | 73 | 165 | 0.0 | 15.0 | 0.00 | 0.00 | 0.00 | 36 | 999.8 |
| 20260505161646 | 73 | 311 | 0.0 | 10.0 | 0.00 | 0.00 | 0.00 | 37 | 1000.1 |
| 20260505161143 | 75 | 299 | 0.0 | 8.0 | 0.00 | 0.00 | 0.00 | 36 | 1000.1 |
| 20260505160641 | 74 | 117 | 0.0 | 0.0 | 0.00 | 0.00 | 0.00 | 36 | 1000.1 |
| 20260505160138 | 74 | 249 | 0.0 | 0.0 | 0.00 | 0.00 | 0.00 | 37 | 1000.1 |
| 20260505153118 | 71 | 226 | 0.0 | 13.0 | 0.00 | 0.00 | 0.00 | 39 | 1000.4 |
| 20260505152614 | 71 | 253 | 0.0 | 2.0 | 0.00 | 0.00 | 0.00 | 40 | 1000.9 |
| 20260505152110 | 70 | 149 | 0.0 | 0.0 | 0.00 | 0.00 | 0.00 | 41 | 1000.9 |
| 20260505151605 | 69 | 132 | 0.0 | 2.0 | 0.00 | 0.00 | 0.00 | 41 | 1001.2 |
| 20260505151103 | 69 | 167 | 0.0 | 0.0 | 0.00 | 0.00 | 0.00 | 41 | 1001.2 |
| 20260505150559 | 70 | 209 | 0.0 | 0.0 | 0.00 | 0.00 | 0.00 | 40 | 1000.9 |
| 20260505140525 | 66 | 225 | 0.0 | 2.0 | 0.00 | 0.00 | 0.00 | 47 | 1001.6 |
| 20260505124938 | 56 | 180 | 0.0 | 0.0 | 0.00 | 0.00 | 0.00 | 63 | 1001.9 |
| 20260505124435 | 56 | 196 | 0.0 | 0.0 | 0.00 | 0.00 | 0.00 | 64 | 1001.9 |
| 20260505123931 | 56 | 214 | 0.0 | 0.0 | 0.00 | 0.00 | 0.00 | 64 | 1002.2 |
| 20260505123428 | 55 | 219 | 0.0 | 0.0 | 0.00 | 0.00 | 0.00 | 65 | 1001.9 |
| 20260505122923 | 53 | 228 | 0.0 | 0.0 | 0.00 | 0.00 | 0.00 | 67 | 1001.9 |
| 20260505122421 | 53 | 175 | 0.0 | 0.0 | 0.00 | 0.00 | 0.00 | 69 | 1001.9 |
| 20260505121917 | 52 | 200 | 0.0 | 0.0 | 0.00 | 0.00 | 0.00 | 70 | 1001.9 |
| 20260505121415 | 52 | 176 | 0.0 | 0.0 | 0.00 | 0.00 | 0.00 | 70 | 1001.9 |
| 20260505120910 | 51 | 183 | 0.0 | 0.0 | 0.00 | 0.00 | 0.00 | 71 | 1002.2 |
| 20260505120407 | 51 | 195 | 0.0 | 0.0 | 0.00 | 0.00 | 0.00 | 71 | 1002.2 |
| 20260505115906 | 50 | 169 | 0.0 | 0.0 | 0.00 | 0.00 | 0.00 | 72 | 1002.2 |
| 20260505115403 | 50 | 166 | 0.0 | 0.0 | 0.00 | 0.00 | 0.00 | 73 | 1002.2 |
| 20260505114901 | 49 | 216 | 0.0 | 0.0 | 0.00 | 0.00 | 0.00 | 75 | 1002.6 |
| 20260505114357 | 48 | 157 | 0.0 | 0.0 | 0.00 | 0.00 | 0.00 | 75 | 1002.6 |
| 20260505113853 | 48 | 167 | 0.0 | 0.0 | 0.00 | 0.00 | 0.00 | 76 | 1002.6 |
| 20260505113350 | 47 | 215 | 0.0 | 0.0 | 0.00 | 0.00 | 0.00 | 76 | 1002.6 |
| 20260505112846 | 46 | 194 | 0.0 | 0.0 | 0.00 | 0.00 | 0.00 | 77 | 1002.6 |
| 20260505112344 | 46 | 186 | 0.0 | 0.0 | 0.00 | 0.00 | 0.00 | 77 | 1002.9 |
| 20260505111839 | 45 | 156 | 0.0 | 0.0 | 0.00 | 0.00 | 0.00 | 77 | 1002.6 |
| 20260505111334 | 45 | 120 | 0.0 | 0.0 | 0.00 | 0.00 | 0.00 | 78 | 1002.9 |
| 20260505110831 | 45 | 178 | 0.0 | 0.0 | 0.00 | 0.00 | 0.00 | 78 | 1002.9 |
| 20260505110328 | 44 | 160 | 0.0 | 0.0 | 0.00 | 0.00 | 0.00 | 80 | 1002.6 |
| 20260505101803 | 41 | 198 | 0.0 | 0.0 | 0.00 | 0.00 | 0.00 | 91 | 1002.6 |
| 20260505101258 | 41 | 184 | 0.0 | 0.0 | 0.00 | 0.00 | 0.00 | 91 | 1002.6 |
| 20260505100755 | 41 | 176 | 0.0 | 0.0 | 0.00 | 0.00 | 0.00 | 91 | 1002.9 |
| 20260505100251 | 41 | 172 | 0.0 | 0.0 | 0.00 | 0.00 | 0.00 | 91 | 1002.6 |
| 20260505095747 | 41 | 196 | 0.0 | 0.0 | 0.00 | 0.00 | 0.00 | 91 | 1002.6 |
| 20260505095245 | 40 | 141 | 0.0 | 0.0 | 0.00 | 0.00 | 0.00 | 91 | 1002.9 |
| 20260505094740 | 40 | 180 | 0.0 | 0.0 | 0.00 | 0.00 | 0.00 | 91 | 1002.6 |
| 20260505094237 | 40 | 169 | 0.0 | 0.0 | 0.00 | 0.00 | 0.00 | 91 | 1002.6 |
| 20260505093733 | 39 | 189 | 0.0 | 0.0 | 0.00 | 0.00 | 0.00 | 91 | 1002.6 |
| 20260505093231 | 39 | 195 | 0.0 | 0.0 | 0.00 | 0.00 | 0.00 | 90 | 1002.9 |
| 20260505092728 | 39 | 192 | 0.0 | 0.0 | 0.00 | 0.00 | 0.00 | 90 | 1002.9 |
| 20260505092227 | 39 | 195 | 0.0 | 0.0 | 0.00 | 0.00 | 0.00 | 90 | 1002.9 |
| 20260505091723 | 39 | 212 | 0.0 | 0.0 | 0.00 | 0.00 | 0.00 | 89 | 1002.9 |
| 20260505091221 | 39 | 230 | 0.0 | 0.0 | 0.00 | 0.00 | 0.00 | 89 | 1002.9 |
| 20260505090718 | 38 | 192 | 0.0 | 0.0 | 0.00 | 0.00 | 0.00 | 88 | 1002.9 |
| 20260505090217 | 39 | 186 | 0.0 | 0.0 | 0.00 | 0.00 | 0.00 | 88 | 1002.9 |
| 20260505085714 | 39 | 187 | 0.0 | 0.0 | 0.00 | 0.00 | 0.00 | 87 | 1002.9 |
| 20260505085212 | 39 | 194 | 0.0 | 0.0 | 0.00 | 0.00 | 0.00 | 87 | 1002.9 |
| 20260505084709 | 39 | 184 | 0.0 | 0.0 | 0.00 | 0.00 | 0.00 | 85 | 1002.6 |
| 20260505084208 | 39 | 191 | 0.0 | 0.0 | 0.00 | 0.00 | 0.00 | 85 | 1002.9 |
| 20260505083704 | 39 | 203 | 0.0 | 0.0 | 0.00 | 0.00 | 0.00 | 84 | 1002.9 |
| 20260505083201 | 39 | 200 | 0.0 | 0.0 | 0.00 | 0.00 | 0.00 | 83 | 1002.9 |
| 20260505082657 | 39 | 199 | 0.0 | 0.0 | 0.00 | 0.00 | 0.00 | 82 | 1003.2 |
| 20260505082154 | 40 | 201 | 0.0 | 0.0 | 0.00 | 0.00 | 0.00 | 81 | 1003.2 |
| 20260505081650 | 40 | 201 | 0.0 | 0.0 | 0.00 | 0.00 | 0.00 | 81 | 1003.2 |
| 20260505081148 | 40 | 195 | 0.0 | 0.0 | 0.00 | 0.00 | 0.00 | 80 | 1003.2 |
| 20260505080645 | 40 | 203 | 0.0 | 0.0 | 0.00 | 0.00 | 0.00 | 79 | 1002.9 |
| 20260505080140 | 41 | 166 | 0.0 | 0.0 | 0.00 | 0.00 | 0.00 | 79 | 1003.2 |
| 20260505075637 | 41 | 204 | 0.0 | 0.0 | 0.00 | 0.00 | 0.00 | 79 | 1003.2 |
| 20260505075133 | 42 | 190 | 0.0 | 0.0 | 0.00 | 0.00 | 0.00 | 78 | 1003.2 |
| 20260505074630 | 42 | 190 | 0.0 | 0.0 | 0.00 | 0.00 | 0.00 | 78 | 1003.2 |
| 20260505074127 | 42 | 198 | 0.0 | 0.0 | 0.00 | 0.00 | 0.00 | 78 | 1003.2 |
| 20260505073625 | 42 | 199 | 0.0 | 0.0 | 0.00 | 0.00 | 0.00 | 77 | 1003.6 |
| 20260505073123 | 42 | 184 | 0.0 | 0.0 | 0.00 | 0.00 | 0.00 | 77 | 1003.6 |
| 20260505072618 | 42 | 197 | 0.0 | 0.0 | 0.00 | 0.00 | 0.00 | 77 | 1003.2 |
| 20260505072115 | 42 | 197 | 0.0 | 0.0 | 0.00 | 0.00 | 0.00 | 77 | 1003.6 |
| 20260505071611 | 42 | 200 | 0.0 | 0.0 | 0.00 | 0.00 | 0.00 | 78 | 1003.2 |
| 20260505071109 | 42 | 168 | 0.0 | 0.0 | 0.00 | 0.00 | 0.00 | 78 | 1003.2 |
| 20260505070606 | 42 | 174 | 0.0 | 0.0 | 0.00 | 0.00 | 0.00 | 78 | 1003.6 |
| 20260505065558 | 41 | 197 | 0.0 | 0.0 | 0.00 | 0.00 | 0.00 | 77 | 1003.2 |
| 20260505065055 | 41 | 195 | 0.0 | 0.0 | 0.00 | 0.00 | 0.00 | 76 | 1003.2 |
| 20260505064551 | 41 | 194 | 0.0 | 0.0 | 0.00 | 0.00 | 0.00 | 76 | 1003.2 |
| 20260505064050 | 42 | 187 | 0.0 | 0.0 | 0.00 | 0.00 | 0.00 | 76 | 1003.6 |
| 20260505063547 | 42 | 205 | 0.0 | 0.0 | 0.00 | 0.00 | 0.00 | 76 | 1003.6 |
| 20260505063043 | 42 | 201 | 0.0 | 0.0 | 0.00 | 0.00 | 0.00 | 75 | 1003.2 |
| 20260505062540 | 42 | 232 | 0.0 | 0.0 | 0.00 | 0.00 | 0.00 | 75 | 1003.6 |
| 20260505062037 | 42 | 199 | 0.0 | 0.0 | 0.00 | 0.00 | 0.00 | 75 | 1003.6 |
| 20260505061534 | 43 | 277 | 0.0 | 0.0 | 0.00 | 0.00 | 0.00 | 75 | 1003.6 |
| 20260505061032 | 43 | 182 | 0.0 | 0.0 | 0.00 | 0.00 | 0.00 | 75 | 1003.6 |
| 20260505060529 | 43 | 246 | 0.0 | 0.0 | 0.00 | 0.00 | 0.00 | 75 | 1003.6 |
| 20260505060026 | 43 | 245 | 0.0 | 0.0 | 0.00 | 0.00 | 0.00 | 75 | 1003.9 |
| 20260505055521 | 43 | 191 | 0.0 | 0.0 | 0.00 | 0.00 | 0.00 | 75 | 1003.9 |
| 20260505055018 | 42 | 223 | 0.0 | 0.0 | 0.00 | 0.00 | 0.00 | 75 | 1003.9 |
| 20260505054516 | 42 | 256 | 0.0 | 0.0 | 0.00 | 0.00 | 0.00 | 75 | 1003.9 |
| 20260505054014 | 42 | 193 | 0.0 | 0.0 | 0.00 | 0.00 | 0.00 | 75 | 1003.6 |
| 20260505053510 | 42 | 175 | 0.0 | 0.0 | 0.00 | 0.00 | 0.00 | 74 | 1003.6 |
| 20260505053007 | 41 | 162 | 0.0 | 0.0 | 0.00 | 0.00 | 0.00 | 74 | 1003.2 |
| 20260505052504 | 42 | 212 | 0.0 | 0.0 | 0.00 | 0.00 | 0.00 | 74 | 1003.6 |
| 20260505052001 | 42 | 219 | 0.0 | 0.0 | 0.00 | 0.00 | 0.00 | 73 | 1003.2 |
| 20260505051458 | 42 | 187 | 0.0 | 0.0 | 0.00 | 0.00 | 0.00 | 73 | 1003.2 |
| 20260505050956 | 42 | 195 | 0.0 | 0.0 | 0.00 | 0.00 | 0.00 | 73 | 1003.2 |
| 20260505050454 | 42 | 210 | 0.0 | 0.0 | 0.00 | 0.00 | 0.00 | 73 | 1003.2 |
| 20260505041422 | 42 | 218 | 0.0 | 0.0 | 0.00 | 0.00 | 0.00 | 72 | 1003.9 |
| 20260505040919 | 43 | 236 | 0.0 | 0.0 | 0.00 | 0.00 | 0.00 | 72 | 1003.9 |
| 20260505040416 | 42 | 248 | 0.0 | 0.0 | 0.00 | 0.00 | 0.00 | 72 | 1003.9 |
| 20260505035913 | 42 | 169 | 0.0 | 0.0 | 0.00 | 0.00 | 0.00 | 72 | 1003.6 |
| 20260505035409 | 42 | 206 | 0.0 | 0.0 | 0.00 | 0.00 | 0.00 | 72 | 1003.6 |
| 20260505034907 | 42 | 226 | 0.0 | 0.0 | 0.00 | 0.00 | 0.00 | 72 | 1003.6 |
| 20260505034403 | 42 | 238 | 0.0 | 0.0 | 0.00 | 0.00 | 0.00 | 72 | 1003.2 |
| 20260505033900 | 42 | 249 | 0.0 | 0.0 | 0.00 | 0.00 | 0.00 | 72 | 1003.6 |
| 20260505033357 | 42 | 206 | 0.0 | 0.0 | 0.00 | 0.00 | 0.00 | 72 | 1003.6 |
| 20260505032855 | 42 | 227 | 0.0 | 0.0 | 0.00 | 0.00 | 0.00 | 72 | 1003.6 |
| 20260505032351 | 42 | 223 | 0.0 | 0.0 | 0.00 | 0.00 | 0.00 | 72 | 1003.6 |
| 20260505031848 | 42 | 197 | 0.0 | 0.0 | 0.00 | 0.00 | 0.00 | 73 | 1003.6 |
| 20260505031345 | 42 | 217 | 0.0 | 0.0 | 0.00 | 0.00 | 0.00 | 72 | 1003.6 |
| 20260505030842 | 42 | 194 | 0.0 | 0.0 | 0.00 | 0.00 | 0.00 | 73 | 1003.6 |
| 20260505030338 | 42 | 241 | 0.0 | 0.0 | 0.00 | 0.00 | 0.00 | 73 | 1003.6 |
| 20260505025833 | 42 | 188 | 0.0 | 0.0 | 0.00 | 0.00 | 0.00 | 72 | 1003.6 |
| 20260505025331 | 42 | 194 | 0.0 | 0.0 | 0.00 | 0.00 | 0.00 | 72 | 1003.6 |
| 20260505024830 | 42 | 199 | 0.0 | 0.0 | 0.00 | 0.00 | 0.00 | 72 | 1003.2 |
| 20260505024327 | 42 | 161 | 0.0 | 0.0 | 0.00 | 0.00 | 0.00 | 72 | 1003.6 |
| 20260505023824 | 42 | 241 | 0.0 | 0.0 | 0.00 | 0.00 | 0.00 | 72 | 1003.2 |
| 20260505023321 | 42 | 224 | 0.0 | 0.0 | 0.00 | 0.00 | 0.00 | 72 | 1003.6 |
| 20260505022818 | 42 | 206 | 0.0 | 0.0 | 0.00 | 0.00 | 0.00 | 72 | 1003.2 |
| 20260505022315 | 42 | 220 | 0.0 | 0.0 | 0.00 | 0.00 | 0.00 | 72 | 1003.6 |
| 20260505021813 | 42 | 188 | 0.0 | 0.0 | 0.00 | 0.00 | 0.00 | 71 | 1003.6 |
| 20260505021309 | 42 | 253 | 0.0 | 0.0 | 0.00 | 0.00 | 0.00 | 71 | 1003.6 |
| 20260505020805 | 42 | 223 | 0.0 | 0.0 | 0.00 | 0.00 | 0.00 | 71 | 1003.2 |
| 20260505020301 | 42 | 276 | 0.0 | 0.0 | 0.00 | 0.00 | 0.00 | 71 | 1003.6 |
| 20260505015758 | 42 | 188 | 0.0 | 0.0 | 0.00 | 0.00 | 0.00 | 70 | 1003.6 |
| 20260505015255 | 42 | 251 | 0.0 | 0.0 | 0.00 | 0.00 | 0.00 | 70 | 1003.2 |
| 20260505014752 | 42 | 208 | 0.0 | 0.0 | 0.00 | 0.00 | 0.00 | 70 | 1003.2 |
| 20260505014249 | 42 | 240 | 0.0 | 0.0 | 0.00 | 0.00 | 0.00 | 70 | 1003.2 |
| 20260505013745 | 42 | 283 | 0.0 | 0.0 | 0.00 | 0.00 | 0.00 | 70 | 1003.2 |
| 20260505013243 | 42 | 185 | 0.0 | 0.0 | 0.00 | 0.00 | 0.00 | 70 | 1003.2 |
| 20260505012741 | 42 | 242 | 0.0 | 0.0 | 0.00 | 0.00 | 0.00 | 69 | 1003.2 |
| 20260505012238 | 42 | 220 | 0.0 | 0.0 | 0.00 | 0.00 | 0.00 | 69 | 1003.2 |
| 20260505011733 | 42 | 207 | 0.0 | 0.0 | 0.00 | 0.00 | 0.00 | 69 | 1003.2 |
| 20260505011231 | 42 | 202 | 0.0 | 0.0 | 0.00 | 0.00 | 0.00 | 69 | 1003.2 |
| 20260505010726 | 42 | 315 | 0.0 | 0.0 | 0.00 | 0.00 | 0.00 | 68 | 1003.2 |
| 20260505010223 | 42 | 286 | 0.0 | 0.0 | 0.00 | 0.00 | 0.00 | 68 | 1003.2 |
| 20260505005719 | 42 | 252 | 0.0 | 0.0 | 0.00 | 0.00 | 0.00 | 68 | 1002.9 |
| 20260505005216 | 43 | 248 | 0.0 | 0.0 | 0.00 | 0.00 | 0.00 | 68 | 1002.9 |
| 20260505004714 | 43 | 251 | 0.0 | 0.0 | 0.00 | 0.00 | 0.00 | 67 | 1002.9 |
| 20260505004210 | 43 | 209 | 0.0 | 0.0 | 0.00 | 0.00 | 0.00 | 67 | 1002.9 |
| 20260505003707 | 43 | 251 | 0.0 | 0.0 | 0.00 | 0.00 | 0.00 | 67 | 1002.9 |
| 20260505003205 | 43 | 215 | 0.0 | 0.0 | 0.00 | 0.00 | 0.00 | 67 | 1002.9 |
| 20260505002701 | 43 | 214 | 0.0 | 0.0 | 0.00 | 0.00 | 0.00 | 66 | 1002.6 |
| 20260505002159 | 43 | 202 | 0.0 | 0.0 | 0.00 | 0.00 | 0.00 | 65 | 1002.6 |
| 20260505001655 | 44 | 186 | 0.0 | 0.0 | 0.00 | 0.00 | 0.00 | 65 | 1002.6 |
| 20260505001153 | 44 | 242 | 0.0 | 0.0 | 0.00 | 0.00 | 0.00 | 64 | 1002.2 |
| 20260505000650 | 44 | 255 | 0.0 | 0.0 | 0.00 | 0.00 | 0.00 | 63 | 1002.2 |
| 20260505000148 | 45 | 188 | 0.0 | 0.0 | 0.00 | 0.00 | 0.00 | 63 | 1002.2 |
| 20260504235644 | 45 | 246 | 0.0 | 0.0 | 0.00 | 0.00 | 0.00 | 62 | 1001.9 |
| 20260504235141 | 45 | 274 | 0.0 | 0.0 | 0.00 | 0.00 | 0.00 | 62 | 1001.9 |
| 20260504234638 | 46 | 255 | 0.0 | 0.0 | 0.00 | 0.00 | 0.00 | 61 | 1001.9 |
| 20260504234136 | 46 | 251 | 0.0 | 0.0 | 0.00 | 0.00 | 0.00 | 61 | 1001.9 |
| 20260504233631 | 46 | 163 | 0.0 | 0.0 | 0.00 | 0.00 | 0.00 | 61 | 1001.6 |
| 20260504233127 | 46 | 233 | 0.0 | 0.0 | 0.00 | 0.00 | 0.00 | 60 | 1001.6 |
| 20260504232625 | 46 | 254 | 0.0 | 0.0 | 0.00 | 0.00 | 0.00 | 61 | 1001.6 |
| 20260504232122 | 46 | 224 | 0.0 | 0.0 | 0.00 | 0.00 | 0.00 | 60 | 1001.6 |
| 20260504231618 | 47 | 287 | 0.0 | 0.0 | 0.00 | 0.00 | 0.00 | 59 | 1001.6 |
| 20260504231115 | 47 | 272 | 0.0 | 0.0 | 0.00 | 0.00 | 0.00 | 59 | 1001.2 |
| 20260504230611 | 47 | 194 | 0.0 | 0.0 | 0.00 | 0.00 | 0.00 | 59 | 1001.2 |
| 20260504230110 | 47 | 148 | 0.0 | 0.0 | 0.00 | 0.00 | 0.00 | 59 | 1001.2 |
| 20260504225607 | 47 | 194 | 0.0 | 0.0 | 0.00 | 0.00 | 0.00 | 59 | 1001.2 |
| 20260504225104 | 47 | 252 | 0.0 | 0.0 | 0.00 | 0.00 | 0.00 | 58 | 1001.2 |
| 20260504224600 | 48 | 234 | 0.0 | 0.0 | 0.00 | 0.00 | 0.00 | 58 | 1001.2 |
| 20260504224057 | 48 | 244 | 0.0 | 0.0 | 0.00 | 0.00 | 0.00 | 58 | 1001.2 |
| 20260504223554 | 48 | 238 | 0.0 | 0.0 | 0.00 | 0.00 | 0.00 | 58 | 1001.2 |
| 20260504223050 | 48 | 174 | 0.0 | 0.0 | 0.00 | 0.00 | 0.00 | 58 | 1000.9 |
| 20260504222547 | 48 | 300 | 0.0 | 0.0 | 0.00 | 0.00 | 0.00 | 58 | 1000.9 |
| 20260504222044 | 48 | 240 | 0.0 | 0.0 | 0.00 | 0.00 | 0.00 | 59 | 1000.9 |
| 20260504221542 | 48 | 238 | 0.0 | 0.0 | 0.00 | 0.00 | 0.00 | 59 | 1000.9 |
| 20260504221038 | 48 | 231 | 0.0 | 0.0 | 0.00 | 0.00 | 0.00 | 58 | 1000.9 |
| 20260504220535 | 48 | 214 | 0.0 | 0.0 | 0.00 | 0.00 | 0.00 | 58 | 1000.9 |
| 20260504220032 | 48 | 144 | 0.0 | 0.0 | 0.00 | 0.00 | 0.00 | 59 | 1000.9 |
| 20260504215528 | 48 | 239 | 0.0 | 0.0 | 0.00 | 0.00 | 0.00 | 58 | 1000.9 |
| 20260504215026 | 49 | 265 | 0.0 | 0.0 | 0.00 | 0.00 | 0.00 | 57 | 1000.9 |
| 20260504214522 | 49 | 195 | 0.0 | 0.0 | 0.00 | 0.00 | 0.00 | 58 | 1000.9 |
| 20260504214018 | 48 | 245 | 0.0 | 0.0 | 0.00 | 0.00 | 0.00 | 59 | 1000.9 |
| 20260504213514 | 48 | 267 | 0.0 | 0.0 | 0.00 | 0.00 | 0.00 | 58 | 1000.9 |
| 20260504213012 | 49 | 304 | 0.0 | 0.0 | 0.00 | 0.00 | 0.00 | 56 | 1000.9 |
| 20260504212508 | 50 | 308 | 0.0 | 2.0 | 0.00 | 0.00 | 0.00 | 55 | 1000.9 |
| 20260504212005 | 50 | 220 | 0.0 | 0.0 | 0.00 | 0.00 | 0.00 | 55 | 1000.4 |
| 20260504211502 | 51 | 239 | 0.0 | 0.0 | 0.00 | 0.00 | 0.00 | 55 | 1000.4 |
| 20260504210959 | 50 | 260 | 0.0 | 5.0 | 0.00 | 0.00 | 0.00 | 54 | 1000.4 |
| 20260504210456 | 51 | 146 | 0.0 | 0.0 | 0.00 | 0.00 | 0.00 | 55 | 1000.4 |
| 20260504205953 | 50 | 263 | 0.0 | 0.0 | 0.00 | 0.00 | 0.00 | 55 | 1000.4 |
| 20260504205450 | 50 | 250 | 0.0 | 0.0 | 0.00 | 0.00 | 0.00 | 56 | 1000.4 |
| 20260504204948 | 51 | 271 | 0.0 | 0.0 | 0.00 | 0.00 | 0.00 | 54 | 1000.4 |
| 20260504204446 | 51 | 195 | 0.0 | 0.0 | 0.00 | 0.00 | 0.00 | 55 | 1000.1 |
| 20260504203945 | 50 | 185 | 0.0 | 0.0 | 0.00 | 0.00 | 0.00 | 55 | 1000.4 |
| 20260504203443 | 49 | 220 | 0.0 | 2.0 | 0.00 | 0.00 | 0.00 | 55 | 1000.4 |
| 20260504202938 | 50 | 285 | 0.0 | 0.0 | 0.00 | 0.00 | 0.00 | 53 | 1000.4 |
| 20260504202435 | 50 | 265 | 0.0 | 0.0 | 0.00 | 0.00 | 0.00 | 53 | 1000.4 |
| 20260504201932 | 51 | 221 | 0.0 | 5.0 | 0.00 | 0.00 | 0.00 | 52 | 1000.4 |
| 20260504201429 | 51 | 222 | 0.0 | 0.0 | 0.00 | 0.00 | 0.00 | 52 | 1000.4 |
| 20260504200927 | 51 | 256 | 0.0 | 2.0 | 0.00 | 0.00 | 0.00 | 52 | 1000.4 |
| 20260504200423 | 51 | 251 | 0.0 | 0.0 | 0.00 | 0.00 | 0.00 | 52 | 1000.4 |
| 20260504195920 | 52 | 206 | 0.0 | 0.0 | 0.00 | 0.00 | 0.00 | 52 | 1000.4 |
| 20260504195416 | 49 | 254 | 0.0 | 0.0 | 0.00 | 0.00 | 0.00 | 55 | 1000.4 |
| 20260504194913 | 50 | 138 | 0.0 | 2.0 | 0.00 | 0.00 | 0.00 | 54 | 1000.4 |
| 20260504194408 | 49 | 200 | 0.0 | 0.0 | 0.00 | 0.00 | 0.00 | 58 | 1000.9 |
| 20260504193905 | 48 | 188 | 0.0 | 0.0 | 0.00 | 0.00 | 0.00 | 57 | 1000.4 |
| 20260504193402 | 48 | 236 | 0.0 | 2.0 | 0.00 | 0.00 | 0.00 | 58 | 1000.9 |
| 20260504192901 | 47 | 177 | 0.0 | 0.0 | 0.00 | 0.00 | 0.00 | 58 | 1000.9 |
| 20260504192358 | 47 | 234 | 0.0 | 0.0 | 0.00 | 0.00 | 0.00 | 58 | 1000.4 |